Weather History for Crookston, MN

Change the Weather History Date:

Friday, December 7, 2012

  Actual Average Record
Temperature  
Mean Temperature 12 °F -  
Max Temperature 19 °F 25 °F 37 °F (1999)
Min Temperature 6 °F 10 °F -25 °F (2013)
Degree Days  
Heating Degree Days 52    
Moisture  
Dew Point 8 °F    
Average Humidity 83    
Maximum Humidity 92    
Minimum Humidity 68    
Precipitation  
Precipitation 0.00 in - - ()
Sea Level Pressure  
Sea Level Pressure 30.08 in    
Wind  
Wind Speed 6 mph (North)    
Max Wind Speed 10 mph    
Max Gust Speed -    
Visibility 10 miles    
Events      
Averages and records for this station are not official NWS values.
T = Trace of Precipitation, MM = Missing Value Source: NWS Daily Summary

Daily Weather History Graph

Daily Weather History Graph

Search for Another Location

Airport:

Trip Planner

Search our weather history database for the weather conditions in past years. The results will help you decide how hot, cold, wet, or windy it might be!

Date:

Astronomy

Dec. 07, 2012 Rise Set
Actual Time 8:02 AM CST 4:34 PM CST
Civil Twilight 7:26 AM CST 5:10 PM CST
Nautical Twilight 6:47 AM CST 5:49 PM CST
Astronomical Twilight 6:09 AM CST 6:26 PM CST
Moon 12:57 AM CST (12/7) 12:54 PM CST (12/7)
Length of Visible Light 9h 43m
Length of Day
8h 32m
Last Quarter, 38% of the Moon is Illuminated
Dec 7
Last Quarter
Dec 13
New
Dec 19
First Quarter
Dec 28
Full
Jan 4
Last Quarter

Hourly Weather History & Observations

Time (CST) Temp. Windchill Dew Point Humidity Pressure Visibility Wind Dir Wind Speed Gust Speed Precip Events Conditions
12:14 AM 17.6 °F 8.2 °F 14.0 °F 86% 30.01 in 10.0 mi NNW 6.9 mph - N/A   Clear
12:34 AM 17.6 °F 7.3 °F 14.0 °F 86% 30.01 in 10.0 mi NNW 8.1 mph - N/A   Clear
12:55 AM 17.6 °F 6.4 °F 14.0 °F 86% 30.01 in 10.0 mi North 9.2 mph - N/A   Clear
1:14 AM 17.6 °F 5.7 °F 12.2 °F 79% 30.01 in 10.0 mi North 10.4 mph - N/A   Clear
1:34 AM 15.8 °F 4.2 °F 12.2 °F 86% 30.01 in 10.0 mi North 9.2 mph - N/A   Clear
1:55 AM 15.8 °F 5.1 °F 10.4 °F 79% 30.01 in 10.0 mi North 8.1 mph - N/A   Clear
2:14 AM 14.0 °F 5.1 °F 10.4 °F 86% 30.02 in 10.0 mi North 5.8 mph - N/A   Clear
2:34 AM 12.2 °F 6.1 °F 10.4 °F 92% 30.03 in 10.0 mi North 3.5 mph - N/A   Clear
2:55 AM 12.2 °F - 10.4 °F 92% 30.04 in 10.0 mi Calm Calm - N/A   Clear
3:14 AM 12.2 °F - 10.4 °F 92% 30.04 in 10.0 mi Calm Calm - N/A   Clear
3:34 AM 12.2 °F - 10.4 °F 92% 30.04 in 10.0 mi Calm Calm - N/A   Clear
3:55 AM 12.2 °F 2.9 °F 8.6 °F 85% 30.03 in 10.0 mi North 5.8 mph - N/A   Clear
4:14 AM 10.4 °F - 8.6 °F 92% 30.03 in 10.0 mi Calm Calm - N/A   Clear
4:35 AM 10.4 °F - 8.6 °F 92% 30.04 in 10.0 mi Calm Calm - N/A   Clear
4:55 AM 10.4 °F - 6.8 °F 85% 30.04 in 10.0 mi Calm Calm - N/A   Clear
5:14 AM 10.4 °F 4.0 °F 6.8 °F 85% 30.04 in 10.0 mi NNW 3.5 mph - N/A   Clear
5:35 AM 8.6 °F 2.0 °F 6.8 °F 92% 30.05 in 10.0 mi NW 3.5 mph - N/A   Clear
5:55 AM 10.4 °F 4.0 °F 6.8 °F 85% 30.05 in 10.0 mi WNW 3.5 mph - N/A   Clear
6:14 AM 10.4 °F 0.8 °F 6.8 °F 85% 30.05 in 10.0 mi NW 5.8 mph - N/A   Clear
6:35 AM 8.6 °F -2.6 °F 6.8 °F 92% 30.06 in 10.0 mi NW 6.9 mph - N/A   Clear
6:55 AM 8.6 °F -1.3 °F 6.8 °F 92% 30.08 in 10.0 mi WNW 5.8 mph - N/A   Clear
7:14 AM 8.6 °F -2.6 °F 6.8 °F 92% 30.07 in 10.0 mi NNW 6.9 mph - N/A   Clear
7:35 AM 8.6 °F -1.3 °F 6.8 °F 92% 30.08 in 10.0 mi North 5.8 mph - N/A   Clear
7:55 AM 10.4 °F 0.8 °F 6.8 °F 85% 30.08 in 10.0 mi NNW 5.8 mph - N/A   Clear
8:14 AM 10.4 °F 0.8 °F 6.8 °F 85% 30.08 in 10.0 mi NNW 5.8 mph - N/A   Clear
8:35 AM 10.4 °F -0.4 °F 6.8 °F 85% 30.09 in 10.0 mi North 6.9 mph - N/A   Clear
8:55 AM 10.4 °F -0.4 °F 6.8 °F 85% 30.09 in 10.0 mi North 6.9 mph - N/A   Clear
9:14 AM 10.4 °F 0.8 °F 6.8 °F 85% 30.10 in 10.0 mi NNW 5.8 mph - N/A   Clear
9:35 AM 10.4 °F -1.5 °F 8.6 °F 92% 30.10 in 10.0 mi North 8.1 mph - N/A   Clear
9:55 AM 12.2 °F 0.7 °F 8.6 °F 85% 30.10 in 10.0 mi North 8.1 mph - N/A   Clear
10:14 AM 12.2 °F 0.7 °F 8.6 °F 85% 30.11 in 10.0 mi North 8.1 mph - N/A   Clear
10:35 AM 12.2 °F 2.9 °F 8.6 °F 85% 30.11 in 10.0 mi NNE 5.8 mph - N/A   Clear
10:55 AM 12.2 °F 6.1 °F 8.6 °F 85% 30.12 in 10.0 mi NNE 3.5 mph - N/A   Clear
11:14 AM 14.0 °F 6.5 °F 10.4 °F 86% 30.11 in 10.0 mi NNE 4.6 mph - N/A   Clear
11:35 AM 15.8 °F 8.6 °F 10.4 °F 79% 30.11 in 10.0 mi NE 4.6 mph - N/A   Clear
11:55 AM 15.8 °F 10.2 °F 10.4 °F 79% 30.11 in 10.0 mi NE 3.5 mph - N/A   Scattered Clouds
12:14 PM 15.8 °F 10.2 °F 10.4 °F 79% 30.11 in 10.0 mi ENE 3.5 mph - N/A   Mostly Cloudy
12:35 PM 15.8 °F 8.6 °F 10.4 °F 79% 30.11 in 10.0 mi NE 4.6 mph - N/A   Overcast
12:55 PM 17.6 °F 9.3 °F 10.4 °F 73% 30.10 in 10.0 mi NE 5.8 mph - N/A   Overcast
1:14 PM 17.6 °F 8.2 °F 10.4 °F 73% 30.09 in 10.0 mi NNE 6.9 mph - N/A   Overcast
1:35 PM 17.6 °F 7.3 °F 10.4 °F 73% 30.09 in 10.0 mi NNE 8.1 mph - N/A   Overcast
1:55 PM 17.6 °F 8.2 °F 10.4 °F 73% 30.09 in 10.0 mi NNE 6.9 mph - N/A   Overcast
2:14 PM 17.6 °F 8.2 °F 10.4 °F 73% 30.09 in 10.0 mi NNE 6.9 mph - N/A   Overcast
2:35 PM 17.6 °F 8.2 °F 10.4 °F 73% 30.09 in 10.0 mi North 6.9 mph - N/A   Overcast
2:55 PM 17.6 °F 9.3 °F 10.4 °F 73% 30.09 in 10.0 mi North 5.8 mph - N/A   Overcast
3:14 PM 19.4 °F 12.8 °F 10.4 °F 68% 30.09 in 10.0 mi NNE 4.6 mph - N/A   Overcast
3:35 PM 19.4 °F 12.8 °F 10.4 °F 68% 30.10 in 10.0 mi North 4.6 mph - N/A   Overcast
3:55 PM 17.6 °F 10.7 °F 10.4 °F 73% 30.10 in 10.0 mi NNE 4.6 mph - N/A   Overcast
4:14 PM 17.6 °F 12.3 °F 8.6 °F 68% 30.10 in 10.0 mi NNE 3.5 mph - N/A   Scattered Clouds
4:35 PM 17.6 °F 12.3 °F 8.6 °F 68% 30.10 in 10.0 mi NNE 3.5 mph - N/A   Clear
4:55 PM 15.8 °F 8.6 °F 8.6 °F 73% 30.10 in 10.0 mi North 4.6 mph - N/A   Clear
5:14 PM 15.8 °F 8.6 °F 8.6 °F 73% 30.10 in 10.0 mi North 4.6 mph - N/A   Clear
5:35 PM 14.0 °F 6.5 °F 8.6 °F 79% 30.10 in 10.0 mi NNE 4.6 mph - N/A   Clear
5:55 PM 14.0 °F 5.1 °F 8.6 °F 79% 30.10 in 10.0 mi NNE 5.8 mph - N/A   Clear
6:14 PM 14.0 °F 5.1 °F 8.6 °F 79% 30.11 in 10.0 mi NNE 5.8 mph - N/A   Scattered Clouds
6:35 PM 14.0 °F 3.9 °F 8.6 °F 79% 30.11 in 10.0 mi NNE 6.9 mph - N/A   Scattered Clouds
6:55 PM 12.2 °F 1.7 °F 8.6 °F 85% 30.11 in 10.0 mi NNE 6.9 mph - N/A   Clear
7:14 PM 12.2 °F 2.9 °F 6.8 °F 79% 30.11 in 10.0 mi NNE 5.8 mph - N/A   Clear
7:35 PM 10.4 °F -0.4 °F 6.8 °F 85% 30.11 in 10.0 mi North 6.9 mph - N/A   Clear
7:54 PM 10.4 °F -0.4 °F 6.8 °F 85% 30.11 in 10.0 mi North 6.9 mph - N/A   Clear
8:14 PM 10.4 °F 2.2 °F 6.8 °F 85% 30.11 in 10.0 mi NNE 4.6 mph - N/A   Clear
8:35 PM 8.6 °F 0.1 °F 6.8 °F 92% 30.11 in 10.0 mi NNE 4.6 mph - N/A   Clear
8:54 PM 8.6 °F -1.3 °F 5.0 °F 85% 30.11 in 10.0 mi NNE 5.8 mph - N/A   Clear
9:14 PM 8.6 °F 0.1 °F 5.0 °F 85% 30.11 in 10.0 mi NNE 4.6 mph - N/A   Clear
9:35 PM 8.6 °F 0.1 °F 5.0 °F 85% 30.11 in 10.0 mi NNE 4.6 mph - N/A   Clear
9:54 PM 8.6 °F 0.1 °F 5.0 °F 85% 30.10 in 10.0 mi NE 4.6 mph - N/A   Clear
10:14 PM 8.6 °F 0.1 °F 5.0 °F 85% 30.10 in 10.0 mi NE 4.6 mph - N/A   Clear
10:35 PM 6.8 °F -0.1 °F 3.2 °F 85% 30.10 in 10.0 mi NE 3.5 mph - N/A   Clear
10:54 PM 6.8 °F -2.0 °F 3.2 °F 85% 30.09 in 10.0 mi NE 4.6 mph - N/A   Clear
11:14 PM 8.6 °F -1.3 °F 3.2 °F 79% 30.09 in 10.0 mi ENE 5.8 mph - N/A   Clear
11:35 PM 8.6 °F 0.1 °F 3.2 °F 79% 30.09 in 10.0 mi ENE 4.6 mph - N/A   Scattered Clouds
11:54 PM 8.6 °F -2.6 °F 3.2 °F 79% 30.08 in 10.0 mi ENE 6.9 mph - N/A   Scattered Clouds